Location: Chisholm
(54.9102°N, 114.1701°W)
Time: 12:12:19
(UTC+00:00)

N. Korean satellite - Pass Details

Date: 04 December 2021
Orbit: 447 x 491 km, 97.3° (Epoch: 25 January)

Event Time Altitude Azimuth Distance (km) Brightness Sun altitude
Rises 14:13:14 0° 4° (N) 2,480 10.0 -11.8°
Reaches altitude 10° 14:15:38 10° 347° (NNW) 1,596 8.8 -11.5°
Maximum altitude 14:18:11 20° 298° (WNW) 1,103 7.7 -11.1°
Drops below altitude 10° 14:20:44 10° 249° (WSW) 1,580 8.7 -10.8°
Sets 14:23:06 0° 233° (SW) 2,446 9.8 -10.5°
